| time (UTC) | temp F | wind direction | speed MPH | gust MPH | rain 1hr in | rain 24hr in | rain mn in | humidity % | barometer mb |
| 20260504011516 | 56 | 10 | 21.0 | 21.0 | 0.00 | 0.00 | 0.00 | 87 | 1013.0 |
| 20260504004514 | 56 | 10 | 21.0 | 21.0 | 0.00 | 0.00 | 0.00 | 87 | 1013.0 |
| 20260504001511 | 56 | 10 | 21.0 | 21.0 | 0.00 | 0.00 | 0.00 | 87 | 1013.0 |
| 20260503234509 | 56 | 10 | 21.0 | 21.0 | 0.00 | 0.00 | 0.00 | 87 | 1013.0 |
| 20260503231506 | 56 | 10 | 21.0 | 21.0 | 0.00 | 0.00 | 0.00 | 88 | 1013.0 |
| 20260503224604 | 56 | 10 | 21.0 | 21.0 | 0.00 | 0.00 | 0.00 | 88 | 1013.0 |
| 20260503221603 | 57 | 10 | 21.0 | 21.0 | 0.00 | 0.00 | 0.00 | 89 | 1013.0 |
| 20260503214601 | 58 | 10 | 21.0 | 21.0 | 0.00 | 0.00 | 0.00 | 89 | 1013.0 |
| 20260503211559 | 59 | 10 | 21.0 | 21.0 | 0.00 | 0.00 | 0.00 | 89 | 1012.0 |
| 20260503204557 | 59 | 10 | 21.0 | 21.0 | 0.00 | 0.00 | 0.00 | 89 | 1012.0 |
| 20260503201553 | 59 | 10 | 21.0 | 21.0 | 0.00 | 0.00 | 0.00 | 89 | 1012.0 |
| 20260503194552 | 59 | 10 | 21.0 | 21.0 | 0.00 | 0.00 | 0.00 | 88 | 1012.0 |
| 20260503191549 | 59 | 10 | 21.0 | 21.0 | 0.00 | 0.00 | 0.00 | 86 | 1011.0 |
| 20260503184547 | 59 | 10 | 21.0 | 21.0 | 0.00 | 0.00 | 0.00 | 87 | 1011.0 |
| 20260503181546 | 59 | 10 | 21.0 | 21.0 | 0.00 | 0.00 | 0.00 | 87 | 1011.0 |
| 20260503174543 | 60 | 10 | 21.0 | 21.0 | 0.00 | 0.00 | 0.00 | 85 | 1011.0 |
| 20260503171540 | 62 | 10 | 21.0 | 21.0 | 0.00 | 0.00 | 0.00 | 80 | 1011.0 |
| 20260503081548 | 60 | 100 | 3.0 | 3.0 | 0.00 | 0.00 | 0.00 | 77 | 1013.0 |
| 20260503071541 | 54 | 270 | 3.0 | 3.0 | 0.00 | 0.00 | 0.00 | 83 | 1013.0 |
| 20260503054533 | 55 | 290 | 3.0 | 3.0 | 0.00 | 0.00 | 0.00 | 87 | 1013.0 |
| 20260503051532 | 55 | 290 | 3.0 | 3.0 | 0.00 | 0.00 | 0.00 | 87 | 1013.0 |
| 20260503044529 | 56 | 290 | 3.0 | 3.0 | 0.00 | 0.00 | 0.00 | 87 | 1013.0 |
| 20260503041525 | 56 | 290 | 3.0 | 3.0 | 0.00 | 0.00 | 0.00 | 86 | 1013.0 |
| 20260503034524 | 56 | 290 | 3.0 | 3.0 | 0.00 | 0.00 | 0.00 | 86 | 1013.0 |
| 20260503031521 | 57 | 290 | 3.0 | 3.0 | 0.00 | 0.00 | 0.00 | 86 | 1013.0 |
| 20260503024518 | 57 | 290 | 3.0 | 3.0 | 0.00 | 0.00 | 0.00 | 85 | 1013.0 |
| 20260503021515 | 57 | 290 | 3.0 | 3.0 | 0.00 | 0.00 | 0.00 | 84 | 1013.0 |
| 20260503014513 | 56 | 290 | 3.0 | 3.0 | 0.00 | 0.00 | 0.00 | 81 | 1014.0 |